Miscellaneous Local Product
Issued by NWS Hastings, NE

Home | Current Version | Previous Version | Text Only | Print | Product List | Glossary Off
Versions: 1 2 3 4 5 6 7 8 9 10 11 12 13 14 15 16 17 18 19 20 21 22 23 24 25 26 27 28 29 30 31 32 33 34 35 36 37 38 39 40 41 42 43 44 45 46 47 48 49 50

000
AXUS43 KGID 291702
MISGRI

GID CWA HOURLY WEATHER ROUNDUP
NATIONAL WEATHER SERVICE HASTINGS NE
1200 PM CDT WED OCT 29 2014

NOTE: "FAIR" INDICATES FEW OR NO CLOUDS BELOW 12,000 FEET WITH NO
SIGNIFICANT WEATHER AND/OR OBSTRUCTIONS TO VISIBILITY.

...SOUTH CENTRAL NEBRASKA...

CITY           SKY/WX    TMP DP  RH WIND       PRES   REMARKS
GRAND ISLAND   SUNNY     52  32  46 SE10      30.20F
HASTINGS       SUNNY     51  30  44 S9        30.19F
KEARNEY        SUNNY     52  30  43 SE12      30.18F
ORD            SUNNY     50  30  46 SE8       30.15F
YORK           SUNNY     48  32  53 S6        30.22F
AURORA         SUNNY     50  32  49 SE7       30.20F
LEXINGTON      SUNNY     55  26  32 S13       30.16F
HOLDREGE       SUNNY     54  24  31 S15G22    30.16F
HEBRON         SUNNY     52  32  46 SE7       30.23F

...NEBRASKA PANHANDLE...

CITY           SKY/WX    TMP DP  RH WIND       PRES   REMARKS
CHADRON        SUNNY     53  26  35 W6        30.05F
ALLIANCE       SUNNY     58  27  30 W16G24    30.07F
SCOTTSBLUFF    SUNNY     52  29  41 CALM      30.10F
SIDNEY         SUNNY     62  24  23 SW13      30.13F

...WESTERN AND NORTH CENTRAL NEBRASKA...

CITY           SKY/WX    TMP DP  RH WIND       PRES   REMARKS
VALENTINE      SUNNY     53  25  33 SW15      30.07F
AINSWORTH      SUNNY     53  24  31 S15       30.08F
ONEILL         SUNNY     50  32  49 S12       30.15F
BROKEN BOW     SUNNY     53  26  35 S16G24    30.13F
IMPERIAL       SUNNY     55  28  35 CALM      30.13F
NORTH PLATTE   SUNNY     55  26  32 S9        30.13F
MCCOOK         SUNNY     53  28  38 E6        30.15F

...EASTERN NEBRASKA...

CITY           SKY/WX    TMP DP  RH WIND       PRES   REMARKS
NORFOLK        SUNNY     47  32  56 S6        30.20F
SO SIOUX CITY  SUNNY     47  32  56 VRB3      30.22F
TEKAMAH        SUNNY     48  31  51 CALM      30.23F
COLUMBUS         N/A    N/A N/A N/A MISG        N/A
ALBION         SUNNY     48  32  54 SE8       30.19F
OMAHA EPPLEY   SUNNY     48  32  53 E5        30.25F
OFFUTT AFB     SUNNY     49  34  57 W5        30.24F
MILLARD        SUNNY     48  32  54 CALM      30.24F
LINCOLN        SUNNY     49  33  54 CALM      30.25F
NEBRASKA CITY  SUNNY     49  28  45 W5        30.25F
BEATRICE       SUNNY     50  34  53 S5        30.25S
FALLS CITY     SUNNY     53  34  48 NW7       30.25F

...NORTHERN KANSAS...

CITY           SKY/WX    TMP DP  RH WIND       PRES   REMARKS
GOODLAND       SUNNY     65  31  28 VRB3      30.16S
HILL CITY      SUNNY     59  32  36 S10       30.17F
NORTON         SUNNY     55  21  26 SE10      30.16F
PHILLIPSBURG   SUNNY     57  28  33 SE10      30.18F
SMITH CENTER   SUNNY     55  28  35 SE14      30.20F
BELOIT         SUNNY     55  34  44 SE8       30.22S
HAYS           SUNNY     59  34  38 S8        30.19F
RUSSELL        SUNNY     61  32  33 SE13      30.18F
CONCORDIA      SUNNY     55  34  45 SE12      30.23F
SALINA         SUNNY     57  35  43 E7        30.23F
TOPEKA         SUNNY     55  37  50 SW3       30.27F



USA.gov is the U.S. government's official web portal to all federal, state and local government web resources and services.